Location: Eulenloh
(50.0126°N, 11.9469°E)
Time: 20:33:34
(UTC+00:00)

Daily predictions for brighter satellites

Satellite Brightness Start Highest point End
(mag) Time Altitude Azimuth Time Altitude Azimuth Time Altitude Azimuth
SL-24 R/B - RUBIN 2 4.2 16:07:14 10° SW 16:12:32 87° SE 16:18:35 10° NE
Cosmos 1898 Rocket 3.6 16:10:08 10° SSW 16:15:28 86° ESE 16:20:48 10° NNE
Meteor 2-10 4.2 16:11:21 10° NNW 16:16:30 76° W 16:21:31 10° S
Cosmos 1709 Rocket 4.1 16:12:39 10° S 16:18:45 87° W 16:24:56 10° N
COSMO-SKYMED 1 4.0 16:21:36 10° NE 16:24:47 20° E 16:27:57 10° SE
Okean-O 3.0 16:20:41 10° SE 16:24:50 41° ENE 16:29:01 10° N
Alouette 2 Rocket 4.2 16:21:21 10° N 16:25:32 48° ENE 16:31:35 10° SSE
Cosmos 1937 Rocket 3.5 16:21:18 10° SSW 16:26:32 80° ESE 16:31:51 10° NNE
Cosmos 1606 Rocket 4.3 16:25:36 10° NNW 16:29:54 58° W 16:34:08 10° S
PSLV R/B 3.9 16:26:22 10° NNE 16:30:26 68° ESE 16:34:30 10° S
Cosmos 1707 4.4 16:27:21 10° SW 16:30:58 35° WNW 16:34:36 10° N
Okean O Rocket 3.2 16:26:58 10° SSW 16:31:09 40° W 16:35:22 10° NNW
Cosmos 1726 Rocket 4.0 16:28:45 10° NNW 16:33:06 67° W 16:37:24 10° S
USA 234 4.5 16:27:11 10° SSE 16:33:24 46° SW 16:39:40 10° WNW
COSMOS 2487 2.7 16:31:05 10° SSW 16:34:33 67° WNW 16:38:01 10° NNE
Cosmos 1461 3.0 16:32:43 10° NW 16:36:59 66° NE 16:41:25 10° SE
Feng Yun 1-1 Rocket 4.4 16:31:52 10° SSE 16:37:34 89° WSW 16:43:27 10° NNW
Starlink AR 4.5 16:36:24 10° S 16:38:05 16° SE 16:39:36 11° ESE
Cosmos 2082 Rocket 4.2 16:36:06 10° W 16:40:03 19° NW 16:44:00 10° N
NOSS 0 Rocket 4.2 16:35:28 10° NNW 16:41:31 48° NE 16:47:30 10° SE
Cosmos 1125 Rocket 4.5 16:37:33 10° SSE 16:41:49 27° E 16:46:07 10° NE
SMAP 3.4 16:38:21 10° S 16:42:59 74° WSW 16:47:40 10° NNW
Cosmos 1626 Rocket 4.1 16:39:13 10° SSE 16:43:10 35° E 16:47:07 10° NNE
Starlink D 4.5 16:42:03 10° SSW 16:44:20 21° SE 16:46:03 13° E
Cosmos 2333 Rocket 2.2 16:39:30 10° NNW 16:45:17 76° ENE 16:50:58 10° SE
Starlink S 4.4 16:43:14 10° SSW 16:45:31 21° SE 16:47:13 14° E
Starlink C 4.4 16:44:21 10° SSW 16:46:41 21° SE 16:48:19 14° E
Cosmos 1689 Rocket 4.2 16:45:01 10° N 16:47:35 26° WNW 16:50:06 10° SW
Starlink E 4.4 16:45:33 10° SSW 16:47:53 22° SE 16:49:30 14° E
Starlink J 4.3 16:46:44 10° SSW 16:49:05 22° SE 16:50:40 15° E
Cosmos 2237 Rocket 2.7 16:44:30 10° NNW 16:49:43 36° NE 16:54:53 10° ESE
Starlink V 4.3 16:47:53 10° SSW 16:50:17 23° SE 16:51:49 15° E
Cosmos 1340 Rocket 3.3 16:47:05 10° N 16:50:44 35° ENE 16:54:23 10° SE
Meteor 1-24 Rocket 3.6 16:45:58 10° S 16:51:10 60° E 16:56:28 10° NNE
Starlink H 4.3 16:49:05 10° SSW 16:51:30 23° SE 16:53:00 16° E
Starlink F 4.2 16:50:17 10° SSW 16:52:43 24° SE 16:54:11 16° E
Meteor 2-5 Rocket 3.7 16:48:03 10° S 16:53:35 84° E 16:59:11 10° NNE
Starlink G 4.2 16:51:29 10° SSW 16:53:56 24° SE 16:55:22 17° E
Starlink L 4.2 16:52:41 10° SSW 16:55:09 25° SE 16:56:33 17° ESE
Envisat 3.0 16:50:58 10° SSE 16:56:04 88° ENE 17:01:11 10° NNW
Starlink A 4.1 16:53:53 10° SSW 16:56:23 25° SE 16:57:44 18° ESE
Cosmos 1908 4.2 16:53:28 10° NNW 16:57:15 50° W 17:00:59 10° S
Starlink R 4.1 16:55:06 10° SSW 16:57:37 26° SE 16:58:56 19° ESE
Cosmos 1674 3.1 16:53:57 10° SSW 16:57:39 64° WNW 17:01:22 10° N
Starlink K 4.1 16:56:17 10° SSW 16:58:49 26° SE 17:00:06 19° ESE
Starlink M 4.0 16:57:26 10° SSW 17:00:00 27° SE 17:01:14 20° ESE
Cosmos 1048 Rocket 3.9 16:55:16 10° NNW 17:00:28 79° ENE 17:05:35 10° SSE
Cosmos 1607 4.2 16:54:40 10° SSW 17:00:31 50° ESE 17:05:30 15° NE
Cosmos 1300 2.7 16:57:36 10° N 17:01:24 60° ENE 17:05:10 10° SSE
SL-14 R/B 3.4 17:00:22 10° S 17:04:16 54° E 17:08:11 10° NNE
Cosmos 1939 Rocket 3.5 17:02:49 10° SE 17:06:15 30° ENE 17:09:44 10° N
FengYun 1-2 T 4.2 17:01:42 10° SSE 17:07:19 79° ENE 17:13:00 10° NNW
SJ 16-02 3.0 17:03:54 10° WSW 17:07:51 31° WNW 17:11:50 10° N
SL-16 R/B 3.3 17:03:57 10° NNW 17:08:35 25° NE 17:10:47 20° ENE
Cosmos 2184 Rocket 4.0 17:03:11 10° S 17:09:22 90° SE 17:15:34 10° N
ATLAS CENTAUR R/B 3.2 17:09:12 10° NNW 17:11:45 15° NNE 17:12:31 14° NNE
Cosmos 1271 Rocket 2.5 17:08:40 10° S 17:12:24 86° E 17:16:11 10° NNE
SKYMED 2 3.7 17:08:50 10° NNE 17:13:08 54° E 17:17:22 10° S
CSL-04 Rocket 3.8 17:08:04 10° SE 17:13:25 55° ENE 17:18:49 10° N
Cosmos 2219 4.1 17:10:27 10° SSE 17:15:08 28° ESE 17:17:16 22° ENE
Cosmos 372 Rocket 3.9 17:11:06 10° SSW 17:16:13 88° ESE 17:21:26 10° NNE
Cosmos 2154 Rocket 4.0 17:10:47 10° S 17:17:01 69° E 17:23:14 10° NNE
Cosmos 1241 Rocket 4.4 17:10:50 10° NW 17:17:02 69° NE 17:23:14 10° SE
Cosmos 1455 4.2 17:15:19 10° NNE 17:16:06 14° NNE 17:16:06 14° NNE
CZ-4 R/B 4.3 17:15:56 10° SSE 17:20:03 82° ENE 17:24:12 10° NNW
Meteor 2-1 Rocket 4.1 17:16:16 10° N 17:21:47 67° ENE 17:27:16 10° SSE
ATLAS 5 CENTAUR R/B 2.2 17:18:09 10° WSW 17:22:23 54° NW 17:25:54 18° NNE
Cosmos 2298 Rocket 4.2 17:21:58 10° SSW 17:27:16 76° WNW 17:32:38 10° NNE
Cosmos 1812 Rocket 3.5 17:23:01 10° N 17:27:30 89° ENE 17:31:59 10° S
ADEOS Rocket 3.9 17:23:38 14° NE 17:28:21 31° E 17:34:25 10° SSE
CZ-4 R/B 1.3 17:25:19 10° SSE 17:29:20 89° WSW 17:33:28 10° NNW
Cosmos 1980 3.6 17:25:47 10° NNW 17:31:30 69° ENE 17:37:09 10° SE
Cosmos 1626 2.2 17:29:13 10° SSW 17:32:55 79° W 17:36:34 10° N
Cosmos 2297 Rocket 3.0 17:29:08 10° SSE 17:33:50 28° ESE 17:34:16 27° E
CZ-4C R/B 3.1 17:27:18 10° NW 17:34:23 80° SW 17:42:34 10° SE
Cosmos 1610 Rocket 4.5 17:28:25 10° S 17:34:33 86° W 17:40:45 10° N
H-2A R/B 3.3 17:37:33 21° NE 17:37:33 21° NE 17:40:04 10° N
YAOGAN 1 2.5 17:32:50 10° SSE 17:37:10 86° ENE 17:41:32 10° NNW
USA 116 3.7 17:37:55 42° SE 17:37:55 42° SE 17:40:29 10° S
Ariane Rocket 3.3 17:35:23 14° SE 17:39:28 42° ENE 17:44:16 10° N
USA 267 3.7 17:35:54 23° NE 17:39:54 54° NNW 17:46:13 10° W
YAOGAN 6 4.0 17:36:38 10° S 17:40:09 41° W 17:43:41 10° NNW
COSMOS 2428 3.6 17:34:54 10° NW 17:40:27 50° WSW 17:45:57 10° S
Cosmos 494 Rocket 4.0 17:38:09 10° NNW 17:43:18 82° WSW 17:48:24 10° SSE
Cosmos 2227 Rocket 2.9 17:40:38 10° SSE 17:45:23 31° ESE 17:45:23 31° ESE
Cosmos 1242 Rocket 3.4 17:42:25 10° SSW 17:45:49 47° WNW 17:48:52 13° N
Cosmos 2219 Rocket 3.4 17:40:59 10° NW 17:46:22 44° WSW 17:51:42 10° S
NOAA 11 4.1 17:41:40 10° SSE 17:47:11 90° ENE 17:52:43 10° NNW
Cosmos 1295 Rocket 4.5 17:41:46 10° S 17:48:07 86° E 17:54:30 10° N
Cosmos 2366 rocket 4.3 17:42:54 10° SSE 17:48:38 42° E 17:54:28 10° NNE
Cosmos 2251 Rocket 4.2 17:43:57 10° N 17:48:23 33° NE 17:48:23 33° NE
Starlink AQ 3.4 17:48:13 10° WSW 17:50:28 48° SW 17:50:28 48° SW
Cosmos-2242 2.9 17:48:47 10° N 17:53:09 67° ENE 17:57:26 10° SSE
Starlink AS 3.6 17:50:51 10° WSW 17:53:00 45° SW 17:53:00 45° SW
Starlink BA 3.6 17:51:03 10° WSW 17:53:11 45° SW 17:53:11 45° SW
Starlink AU 3.6 17:51:14 10° WSW 17:53:23 45° SW 17:53:23 45° SW
Starlink AT 3.6 17:51:27 10° WSW 17:53:35 44° SW 17:53:35 44° SW
Starlink BB 3.6 17:51:39 10° WSW 17:53:46 44° SW 17:53:46 44° SW
Starlink BC 3.7 17:51:52 10° WSW 17:53:58 44° SW 17:53:58 44° SW
Starlink BK 3.7 17:52:04 10° WSW 17:54:10 44° SW 17:54:10 44° SW
Starlink AY 3.7 17:52:15 10° WSW 17:54:22 44° SW 17:54:22 44° SW
Starlink AW 3.7 17:52:27 10° WSW 17:54:33 44° SW 17:54:33 44° SW
USA 32 3.9 17:50:06 10° S 17:55:20 86° E 18:00:36 10° N
Starlink BJ 3.7 17:52:37 10° WSW 17:54:42 43° SW 17:54:42 43° SW
Starlink AV 3.7 17:52:48 10° WSW 17:54:54 43° SW 17:54:54 43° SW
Starlink BD 3.7 17:53:01 10° WSW 17:55:06 43° SW 17:55:06 43° SW
Starlink BE 3.7 17:53:12 10° WSW 17:55:18 43° SW 17:55:18 43° SW
Starlink BM 3.7 17:53:25 10° WSW 17:55:29 42° SW 17:55:29 42° SW
Starlink AX 3.8 17:53:36 10° WSW 17:55:40 42° SW 17:55:40 42° SW
Cosmos 962 Rocket 4.3 17:50:22 10° S 17:56:28 84° E 18:02:40 10° N
Starlink BH 3.8 17:53:49 10° WSW 17:55:53 42° SW 17:55:53 42° SW
Starlink AZ 3.8 17:54:02 10° WSW 17:56:04 42° SW 17:56:04 42° SW
Starlink BG 3.8 17:54:15 10° WSW 17:56:17 42° SW 17:56:17 42° SW
Cosmos 1602 Rocket 4.2 17:52:50 10° SSW 17:57:09 54° WNW 18:01:28 10° N
Starlink BF 3.8 17:54:26 10° WSW 17:56:28 41° SW 17:56:28 41° SW
Starlink BL 3.8 17:54:35 10° WSW 17:56:38 42° SW 17:56:38 42° SW
Starlink AH 3.8 17:54:48 10° WSW 17:56:49 41° SW 17:56:49 41° SW
Starlink AC 3.8 17:55:00 10° WSW 17:57:01 41° SW 17:57:01 41° SW
Starlink X 3.9 17:55:11 10° WSW 17:57:12 41° SW 17:57:12 41° SW
Starlink AE 3.8 17:55:22 10° WSW 17:57:25 41° SW 17:57:25 41° SW
DMSP B5D1-3 4.4 17:55:40 26° NNE 17:58:28 64° ESE 18:03:30 10° S
Starlink Z 3.9 17:55:36 10° WSW 17:57:35 40° SW 17:57:35 40° SW
Starlink AK 3.9 17:55:49 10° WSW 17:57:49 40° SW 17:57:49 40° SW
Starlink AL 3.9 17:56:01 10° WSW 17:58:01 40° SW 17:58:01 40° SW
Starlink AD 3.9 17:56:11 10° WSW 17:58:10 40° SW 17:58:10 40° SW
Starlink Y 4.0 17:56:37 10° WSW 17:58:34 39° SW 17:58:34 39° SW
Starlink AG 4.0 17:56:49 10° WSW 17:58:46 39° SW 17:58:46 39° SW
Starlink W 4.0 17:56:57 10° WSW 17:58:57 39° SW 17:58:57 39° SW
Starlink AJ 4.0 17:57:11 10° WSW 17:59:08 39° SW 17:59:08 39° SW
Starlink AM 4.0 17:57:34 10° WSW 17:59:30 38° WSW 17:59:30 38° WSW
Starlink AP 4.0 17:57:46 10° WSW 17:59:42 38° WSW 17:59:42 38° WSW
Starlink AA 4.0 17:57:58 10° WSW 17:59:54 38° WSW 17:59:54 38° WSW
Starlink AF 4.0 17:58:12 10° WSW 18:00:08 38° WSW 18:00:08 38° WSW
COSMO-SKYMED 1 3.3 17:57:01 10° N 18:01:14 52° WNW 18:05:28 10° SW
Starlink AB 4.1 17:58:25 10° WSW 18:00:19 37° WSW 18:00:19 37° WSW
Starlink AN 4.1 17:58:34 10° WSW 18:00:28 37° WSW 18:00:28 37° WSW
NOSS 2-1 (C) 4.2 17:58:53 10° NW 18:03:57 78° NE 18:07:07 33° SE
IRS-1A Rocket 4.2 18:00:32 10° SSE 18:06:17 66° ENE 18:11:56 10° N
Timation 2 Rocket 4.2 18:01:07 10° SW 18:07:12 67° NW 18:11:35 21° NNE
NOSS 2-1 (D) 4.2 18:02:40 10° NW 18:07:46 82° NE 18:10:54 33° SE
Cosmos 1727 Rocket 4.0 18:03:13 10° N 18:09:20 55° ENE 18:11:42 35° SE
ARGOS 4.1 18:14:41 31° NNE 18:14:41 31° NNE 18:17:50 10° N
Cosmos 1758 Rocket 3.5 18:09:19 10° SSW 18:13:38 80° WNW 18:14:38 52° N
Cosmos 2341 Rocket 4.1 18:11:13 10° SSW 18:17:36 77° W 18:24:00 10° N
CZ-2D R/B 4.4 18:17:23 10° S 18:21:01 42° W 18:24:42 10° NNW
Cosmos 1125 Rocket 4.2 18:18:33 10° SW 18:23:36 51° WNW 18:26:29 25° N
MOS 1 4.1 18:23:44 56° SE 18:24:53 73° ENE 18:30:36 10° NNW
SL-8 Rocket 3.9 18:20:45 10° S 18:27:05 87° W 18:33:25 10° N
Meteor 1-21 Rocket 4.4 18:23:25 10° SSW 18:28:58 71° WNW 18:34:09 13° N
ATLAS CENTAUR R/B 4.5 18:26:00 10° W 18:32:54 66° N 18:41:31 32° ENE
Cosmos 2237 Rocket 3.1 18:28:33 10° NW 18:33:57 48° WSW 18:39:17 10° S
Meteor 2-10 Rocket 3.9 18:32:38 10° NNW 18:38:03 65° W 18:43:12 10° S
Cosmos 1825 Rocket 4.3 18:36:14 10° SSW 18:40:29 49° WNW 18:40:38 49° WNW
ATLAS CENTAUR R/B 3.8 18:47:43 10° NNW 18:48:43 16° NNW 18:48:43 16° NNW
SL-16 R/B 2.3 18:47:41 10° NNW 18:52:43 69° NW 18:52:43 69° NW
Cosmos 2218 Rocket 4.2 18:47:42 10° SSW 18:54:00 68° WNW 19:00:24 10° N
Cosmos 2219 3.6 18:53:25 10° SW 18:58:56 57° NW 18:59:15 56° NW
ATLAS 5 CENTAUR R/B 3.8 19:04:34 10° WNW 19:07:27 21° NNW 19:07:27 21° NNW
ADEOS Rocket 3.6 19:10:31 26° N 19:14:09 59° WNW 19:20:58 10° SW
H-2A R/B 3.9 19:18:09 23° NNW 19:18:09 23° NNW 19:20:08 10° NNW
Cosmos 2297 Rocket 3.1 19:11:57 10° SW 19:16:08 45° WSW 19:16:08 45° WSW
USA 267 3.8 19:23:15 48° NNW 19:23:15 48° NNW 19:28:38 10° WNW
Cosmos 2227 Rocket 3.5 19:23:49 10° SW 19:27:16 35° WSW 19:27:16 35° WSW
ATLAS 5 CENTAUR R/B 3.8 19:36:46 10° NW 20:14:43 - SE 19:40:34 66° NW
